Regional Weather Roundup
Issued by NWS Northern Indiana

Home | Current Version | Previous Version | Graphics & Text | Print | Product List | Glossary On
Versions: 1 2 3 4 5 6 7 8 9 10 11 12 13 14 15 16 17 18 19 20 21 22 23 24 25 26 27 28 29 30 31 32 33 34 35 36 37 38 39 40 41 42 43 44 45 46 47 48 49 50
000
ASUS43 KIWX 241110
RWRIWX

KIWX WEATHER ROUNDUP
NATIONAL WEATHER SERVICE NORTHERN INDIANA
600 AM EST SAT FEB 24 2018

NOTE: "FAIR" INDICATES FEW OR NO CLOUDS BELOW 12,000 FEET WITH NO
SIGNIFICANT WEATHER AND/OR OBSTRUCTIONS TO VISIBILITY.

* THESE STATIONS ARE NOT UNDER NWS QUALITY CONTROL. THEY ALSO MAY NOT
  REPORT WEATHER SUCH AS PRECIPITATION OR FOG.

INZ001>027-241200-
NORTHERN INDIANA

CITY           SKY/WX    TMP DP  RH WIND       PRES   REMARKS
GARY*          MOCLDY    36  34  93 NE10      30.19F
VALPARAISO     CLOUDY    37  32  82 NE10      30.17F
MICHIGAN CITY* CLOUDY    34  32  93 NE5       30.20F WCI  30
LAPORTE*       CLOUDY    35  31  87 NE8       30.19F WCI  28
SOUTH BEND     CLOUDY    35  30  82 NE9       30.21F WCI  28
GOSHEN         CLOUDY    36  32  85 NE7       30.19F
MONTICELLO*    DRIZZLE   36  35  94 NE10      30.14F
LOGANSPORT*    CLOUDY    36  34  93 E7        30.16S FOG
ROCHESTER*     LGT RAIN  37  36  93 NE9       30.17F
WARSAW*        LGT RAIN  34  32  93 N8        30.18F WCI  27
AUBURN*        CLOUDY    36  34  93 NE7       30.20F
FORT WAYNE     LGT RAIN  38  36  92 NE12      30.17F FOG
HUNTINGTON*    DRIZZLE   36  35  96 NE8       30.15F
PERU/GRISSOM   CLOUDY    37  37 100 E10       30.14F FOG
MARION*        CLOUDY    38  38  99 NE12      30.16S

$$
INZ028>050-241200-
CENTRAL INDIANA

CITY           SKY/WX    TMP DP  RH WIND       PRES   REMARKS
LAFAYETTE      LGT RAIN  37  37 100 E8        30.15S FOG
KOKOMO*        LGT RAIN  38  37  97 NE13      30.15F FOG
MUNCIE*        LGT RAIN  42  40  92 E7        30.14F
INDIANAPOLIS   RAIN      41  40  96 NE9       30.14R FOG

$$
MIZ043>046-050>051-056>058-064>065-071>073-077>080-241200-
SOUTHWEST LOWER MICHIGAN

CITY           SKY/WX    TMP DP  RH WIND       PRES   REMARKS
BATTLE CREEK   CLOUDY    35  29  78 NE3       30.22S
BENTON HARBOR  CLOUDY    35  29  78 NE3       30.23S
COLDWATER*     CLOUDY    36  34  94 NE6       30.21S
HILLSDALE*     CLOUDY    34  32  93 CALM      30.19F
HOLLAND        FAIR      33  27  78 CALM      30.24S
GRAND RAPIDS   CLOUDY    33  28  81 NE5       30.23S WCI  29
KALAMAZOO      CLOUDY    36  29  75 NE3       30.23R
STURGIS*       CLOUDY    36  33  88 NE5       30.20S
THREE RIVERS*  CLOUDY    36  31  84 NE3       30.22S

$$
OHZ001>008-015>018-024>025-241200-
NORTHWEST OHIO

CITY           SKY/WX    TMP DP  RH WIND       PRES   REMARKS
WAUSEON*       CLOUDY    37  37 100 NE5       30.22R
DEFIANCE       CLOUDY    38  34  85 NE8       30.22S
FINDLAY        LGT RAIN  41  37  86 N10       30.18F FOG
TOLEDO EXPRESS CLOUDY    38  35  89 NE7       30.22S
TOLEDO METCALF CLOUDY    39  34  82 NE3       30.24S
LIMA           LGT RAIN  39  39 100 NE12      30.16F FOG

$$
AND FOR LAKE MICHIGAN COASTAL AND OPEN LAKE BUOY OBSERVATIONS

STATION/POSITION TEMP    WIND        PRES    VSBY  WAVE
                 AIR SEA DIR/SP/G                  HT/PER
                 (F)     (DEG/KT/KT) (MB)    (MI)  (FT/S)
CALUMET HARBOR    34      40/ 14/ 20 1022.2F
MICHIGAN CITY     33      30/ 14/ 15   N/A
BURNS HARBOR      34      50/ 13/ 15 1023.0F
SAINT JOSEPH      34      40/  3/  3 1023.4

$$
&&




USA.gov is the U.S. government's official web portal to all federal, state and local government web resources and services.